Year,Month,Day,Hour,Minute,Value (Times are PST for temperature in C)
2022,04,17,00,00,2.40
2022,04,17,00,01,2.40
2022,04,17,00,02,2.40
2022,04,17,00,03,2.30
2022,04,17,00,04,2.30
2022,04,17,00,05,2.30
2022,04,17,00,06,2.30
2022,04,17,00,07,2.30
2022,04,17,00,08,2.30
2022,04,17,00,09,2.30
2022,04,17,00,10,2.30
2022,04,17,00,11,2.30
2022,04,17,00,12,2.30
2022,04,17,00,13,2.30
2022,04,17,00,14,2.30
2022,04,17,00,15,2.30
2022,04,17,00,16,2.20
2022,04,17,00,17,2.20
2022,04,17,00,18,2.20
2022,04,17,00,19,2.20
2022,04,17,00,20,2.20
2022,04,17,00,21,2.20
2022,04,17,00,22,2.20
2022,04,17,00,23,2.20
2022,04,17,00,24,2.20
2022,04,17,00,25,2.20
2022,04,17,00,26,2.20
2022,04,17,00,27,2.20
2022,04,17,00,28,2.20
2022,04,17,00,29,2.20
2022,04,17,00,30,2.20
2022,04,17,00,31,2.20
2022,04,17,00,32,2.20
2022,04,17,00,33,2.20
2022,04,17,00,34,2.20
2022,04,17,00,35,2.20
2022,04,17,00,36,2.20
2022,04,17,00,37,2.20
2022,04,17,00,38,2.10
2022,04,17,00,39,2.10
2022,04,17,00,40,2.10
2022,04,17,00,41,2.10
2022,04,17,00,42,2.00
2022,04,17,00,43,2.00
2022,04,17,00,44,2.00
2022,04,17,00,45,2.00
2022,04,17,00,46,2.00
2022,04,17,00,47,2.00
2022,04,17,00,48,2.00
2022,04,17,00,49,2.00
2022,04,17,00,50,2.00
2022,04,17,00,51,2.00
2022,04,17,00,52,2.00
2022,04,17,00,53,1.90
2022,04,17,00,54,1.90
2022,04,17,00,55,1.90
2022,04,17,00,56,1.90
2022,04,17,00,57,1.90
2022,04,17,00,58,1.90
2022,04,17,00,59,1.90
2022,04,17,01,00,2.00
2022,04,17,01,01,2.00
2022,04,17,01,02,2.00
2022,04,17,01,03,2.10
2022,04,17,01,04,2.20
2022,04,17,01,05,2.20
2022,04,17,01,06,2.20
2022,04,17,01,07,2.20
2022,04,17,01,08,2.20
2022,04,17,01,09,2.20
2022,04,17,01,10,2.20
2022,04,17,01,11,2.20
2022,04,17,01,12,2.20
2022,04,17,01,13,2.20
2022,04,17,01,14,2.20
2022,04,17,01,15,2.20
2022,04,17,01,16,2.10
2022,04,17,01,17,2.10
2022,04,17,01,18,2.10
2022,04,17,01,19,2.10
2022,04,17,01,20,2.10
2022,04,17,01,21,2.10
2022,04,17,01,22,2.10
2022,04,17,01,23,2.10
2022,04,17,01,24,2.00
2022,04,17,01,25,2.00
2022,04,17,01,26,2.00
2022,04,17,01,27,2.00
2022,04,17,01,28,2.00
2022,04,17,01,29,1.90
2022,04,17,01,30,1.90
2022,04,17,01,31,1.90
2022,04,17,01,32,1.90
2022,04,17,01,33,1.80
2022,04,17,01,34,1.80
2022,04,17,01,35,1.80
2022,04,17,01,36,1.80
2022,04,17,01,37,1.80
2022,04,17,01,38,1.80
2022,04,17,01,39,1.80
2022,04,17,01,40,1.80
2022,04,17,01,41,1.80
2022,04,17,01,42,1.80
2022,04,17,01,43,1.70
2022,04,17,01,44,1.70
2022,04,17,01,45,1.70
2022,04,17,01,46,1.70
2022,04,17,01,47,1.70
2022,04,17,01,48,1.70
2022,04,17,01,49,1.60
2022,04,17,01,50,1.60
2022,04,17,01,51,1.60
2022,04,17,01,52,1.50
2022,04,17,01,53,1.50
2022,04,17,01,54,1.50
2022,04,17,01,55,1.50
2022,04,17,01,56,1.50
2022,04,17,01,57,1.50
2022,04,17,01,58,1.50
2022,04,17,01,59,1.50
2022,04,17,02,00,1.40
2022,04,17,02,01,1.40
2022,04,17,02,02,1.40
2022,04,17,02,03,1.40
2022,04,17,02,04,1.30
2022,04,17,02,05,1.30
2022,04,17,02,06,1.30
2022,04,17,02,07,1.30
2022,04,17,02,08,1.20
2022,04,17,02,09,1.20
2022,04,17,02,10,1.20
2022,04,17,02,11,1.20
2022,04,17,02,12,1.10
2022,04,17,02,13,1.10
2022,04,17,02,14,1.10
2022,04,17,02,15,1.10
2022,04,17,02,16,1.10
2022,04,17,02,17,1.00
2022,04,17,02,18,1.00
2022,04,17,02,19,1.00
2022,04,17,02,20,1.00
2022,04,17,02,21,0.90
2022,04,17,02,22,0.90
2022,04,17,02,23,0.90
2022,04,17,02,24,0.90
2022,04,17,02,25,0.90
2022,04,17,02,26,0.80
2022,04,17,02,27,0.80
2022,04,17,02,28,0.80
2022,04,17,02,29,0.80
2022,04,17,02,30,0.80
2022,04,17,02,31,0.80
2022,04,17,02,32,0.70
2022,04,17,02,33,0.70
2022,04,17,02,34,0.70
2022,04,17,02,35,0.60
2022,04,17,02,36,0.60
2022,04,17,02,37,0.60
2022,04,17,02,38,0.60
2022,04,17,02,39,0.60
2022,04,17,02,40,0.60
2022,04,17,02,41,0.50
2022,04,17,02,42,0.50
2022,04,17,02,43,0.50
2022,04,17,02,44,0.50
2022,04,17,02,45,0.50
2022,04,17,02,46,0.50
2022,04,17,02,47,0.50
2022,04,17,02,48,0.50
2022,04,17,02,49,0.40
2022,04,17,02,50,0.40
2022,04,17,02,51,0.40
2022,04,17,02,52,0.40
2022,04,17,02,53,0.40
2022,04,17,02,54,0.40
2022,04,17,02,55,0.40
2022,04,17,02,56,0.40
2022,04,17,02,57,0.40
2022,04,17,02,58,0.40
2022,04,17,02,59,0.40
2022,04,17,03,00,0.40
2022,04,17,03,01,0.40
2022,04,17,03,02,0.40
2022,04,17,03,03,0.40
2022,04,17,03,04,0.40
2022,04,17,03,05,0.40
2022,04,17,03,06,0.40
2022,04,17,03,07,0.40
2022,04,17,03,08,0.40
2022,04,17,03,09,0.40
2022,04,17,03,10,0.40
2022,04,17,03,11,0.40
2022,04,17,03,12,0.40
2022,04,17,03,13,0.40
2022,04,17,03,14,0.40
2022,04,17,03,15,0.40
2022,04,17,03,16,0.40
2022,04,17,03,17,0.40
2022,04,17,03,18,0.40
2022,04,17,03,19,0.40
2022,04,17,03,20,0.40
2022,04,17,03,21,0.40
2022,04,17,03,22,0.40
2022,04,17,03,23,0.40
2022,04,17,03,24,0.40
2022,04,17,03,25,0.50
2022,04,17,03,26,0.50
2022,04,17,03,27,0.50
2022,04,17,03,28,0.50
2022,04,17,03,29,0.50
2022,04,17,03,30,0.60
2022,04,17,03,31,0.60
2022,04,17,03,32,0.60
2022,04,17,03,33,0.60
2022,04,17,03,34,0.60
2022,04,17,03,35,0.60
2022,04,17,03,36,0.60
2022,04,17,03,37,0.60
2022,04,17,03,38,0.60
2022,04,17,03,39,0.60
2022,04,17,03,40,0.60
2022,04,17,03,41,0.70
2022,04,17,03,42,0.70
2022,04,17,03,43,0.70
2022,04,17,03,44,0.70
2022,04,17,03,45,0.70
2022,04,17,03,46,0.70
2022,04,17,03,47,0.70
2022,04,17,03,48,0.70
2022,04,17,03,49,0.70
2022,04,17,03,50,0.70
2022,04,17,03,51,0.70
2022,04,17,03,52,0.70
2022,04,17,03,53,0.70
2022,04,17,03,54,0.70
2022,04,17,03,55,0.80
2022,04,17,03,56,0.80
2022,04,17,03,57,0.80
2022,04,17,03,58,0.80
2022,04,17,03,59,0.80
2022,04,17,04,00,0.80
2022,04,17,04,01,0.80
2022,04,17,04,02,0.80
2022,04,17,04,03,0.80
2022,04,17,04,04,0.80
2022,04,17,04,05,0.80
2022,04,17,04,06,0.80
2022,04,17,04,07,0.80
2022,04,17,04,08,0.80
2022,04,17,04,09,0.80
2022,04,17,04,10,0.80
2022,04,17,04,11,0.70
2022,04,17,04,12,0.70
2022,04,17,04,13,0.70
2022,04,17,04,14,0.70
2022,04,17,04,15,0.70
2022,04,17,04,16,0.60
2022,04,17,04,17,0.60
2022,04,17,04,18,0.60
2022,04,17,04,19,0.60
2022,04,17,04,20,0.50
2022,04,17,04,21,0.50
2022,04,17,04,22,0.50
2022,04,17,04,23,0.50
2022,04,17,04,24,0.40
2022,04,17,04,25,0.40
2022,04,17,04,26,0.40
2022,04,17,04,27,0.40
2022,04,17,04,28,0.40
2022,04,17,04,29,0.40
2022,04,17,04,30,0.30
2022,04,17,04,31,0.30
2022,04,17,04,32,0.30
2022,04,17,04,33,0.20
2022,04,17,04,34,0.20
2022,04,17,04,35,0.20
2022,04,17,04,36,0.20
2022,04,17,04,37,0.10
2022,04,17,04,38,0.10
2022,04,17,04,39,0.10
2022,04,17,04,40,0.10
2022,04,17,04,41,0.10
2022,04,17,04,42,0.10
2022,04,17,04,43,0.10
2022,04,17,04,44,0.10
2022,04,17,04,45,0.10
2022,04,17,04,46,0.10
2022,04,17,04,47,0.10
2022,04,17,04,48,0.10
2022,04,17,04,49,0.10
2022,04,17,04,50,0.10
2022,04,17,04,51,0.10
2022,04,17,04,52,0.10
2022,04,17,04,53,0.10
2022,04,17,04,54,0.10
2022,04,17,04,55,0.10
2022,04,17,04,56,0.10
2022,04,17,04,57,0.10
2022,04,17,04,58,0.10
2022,04,17,04,59,0.10
2022,04,17,05,00,0.10
2022,04,17,05,01,0.10
2022,04,17,05,02,0.10
2022,04,17,05,03,0.10
2022,04,17,05,04,0.10
2022,04,17,05,05,0.10
2022,04,17,05,06,0.00
2022,04,17,05,07,-0.10
2022,04,17,05,08,-0.10
2022,04,17,05,09,-0.10
2022,04,17,05,10,-0.10
2022,04,17,05,11,-0.10
2022,04,17,05,12,-0.10
2022,04,17,05,13,-0.10
2022,04,17,05,14,-0.10
2022,04,17,05,15,-0.10
2022,04,17,05,16,-0.10
2022,04,17,05,17,-0.10
2022,04,17,05,18,-0.10
2022,04,17,05,19,-0.10
2022,04,17,05,20,-0.10
2022,04,17,05,21,-0.10
2022,04,17,05,22,-0.10
2022,04,17,05,23,-0.10
2022,04,17,05,24,-0.10
2022,04,17,05,25,-0.10
2022,04,17,05,26,-0.10
2022,04,17,05,27,-0.10
2022,04,17,05,28,-0.10
2022,04,17,05,29,-0.10
2022,04,17,05,30,-0.10
2022,04,17,05,31,-0.10
2022,04,17,05,32,-0.10
2022,04,17,05,33,-0.10
2022,04,17,05,34,-0.10
2022,04,17,05,35,-0.10
2022,04,17,05,36,-0.10
2022,04,17,05,37,-0.10
2022,04,17,05,38,-0.10
2022,04,17,05,39,-0.10
2022,04,17,05,40,-0.10
2022,04,17,05,41,-0.10
2022,04,17,05,42,-0.10
2022,04,17,05,43,-0.10
2022,04,17,05,44,0.00
2022,04,17,05,45,0.10
2022,04,17,05,46,0.10
2022,04,17,05,47,0.00
2022,04,17,05,48,-0.10
2022,04,17,05,49,-0.10
2022,04,17,05,50,-0.10
2022,04,17,05,51,-0.10
2022,04,17,05,52,-0.10
2022,04,17,05,53,-0.10
2022,04,17,05,54,-0.10
2022,04,17,05,55,-0.10
2022,04,17,05,56,-0.10
2022,04,17,05,57,-0.10
2022,04,17,05,58,-0.10
2022,04,17,05,59,-0.20
2022,04,17,06,00,-0.20
2022,04,17,06,01,-0.20
2022,04,17,06,02,-0.20
2022,04,17,06,03,-0.20
2022,04,17,06,04,-0.20
2022,04,17,06,05,-0.20
2022,04,17,06,06,-0.20
2022,04,17,06,07,-0.20
2022,04,17,06,08,-0.20
2022,04,17,06,09,-0.20
2022,04,17,06,10,-0.20
2022,04,17,06,11,-0.20
2022,04,17,06,12,-0.20
2022,04,17,06,13,-0.20
2022,04,17,06,14,-0.20
2022,04,17,06,15,-0.20
2022,04,17,06,16,-0.20
2022,04,17,06,17,-0.20
2022,04,17,06,18,-0.20
2022,04,17,06,19,-0.10
2022,04,17,06,20,-0.10
2022,04,17,06,21,-0.10
2022,04,17,06,22,-0.10
2022,04,17,06,23,-0.10
2022,04,17,06,24,-0.10
2022,04,17,06,25,-0.10
2022,04,17,06,26,-0.10
2022,04,17,06,27,-0.10
2022,04,17,06,28,-0.10
2022,04,17,06,29,-0.10
2022,04,17,06,30,-0.10
2022,04,17,06,31,-0.10
2022,04,17,06,32,-0.20
2022,04,17,06,33,-0.20
2022,04,17,06,34,-0.20
2022,04,17,06,35,-0.20
2022,04,17,06,36,-0.20
2022,04,17,06,37,-0.20
2022,04,17,06,38,-0.20
2022,04,17,06,39,-0.20
2022,04,17,06,40,-0.20
2022,04,17,06,41,-0.30
2022,04,17,06,42,-0.30
2022,04,17,06,43,-0.30
2022,04,17,06,44,-0.30
2022,04,17,06,45,-0.30
2022,04,17,06,46,-0.30
2022,04,17,06,47,-0.30
2022,04,17,06,48,-0.30
2022,04,17,06,49,-0.30
2022,04,17,06,50,-0.30
2022,04,17,06,51,-0.30
2022,04,17,06,52,-0.30
2022,04,17,06,53,-0.30
2022,04,17,06,54,-0.30
2022,04,17,06,55,-0.30
2022,04,17,06,56,-0.30
2022,04,17,06,57,-0.30
2022,04,17,06,58,-0.30
2022,04,17,06,59,-0.30
2022,04,17,07,00,-0.30
2022,04,17,07,01,-0.30
2022,04,17,07,02,-0.30
2022,04,17,07,03,-0.30
2022,04,17,07,04,-0.30
2022,04,17,07,05,-0.30
2022,04,17,07,06,-0.30
2022,04,17,07,07,-0.30
2022,04,17,07,08,-0.30
2022,04,17,07,09,-0.30
2022,04,17,07,10,-0.30
2022,04,17,07,11,-0.30
2022,04,17,07,12,-0.30
2022,04,17,07,13,-0.30
2022,04,17,07,14,-0.30
2022,04,17,07,15,-0.30
2022,04,17,07,16,-0.30
2022,04,17,07,17,-0.30
2022,04,17,07,18,-0.30
2022,04,17,07,19,-0.30
2022,04,17,07,20,-0.30
2022,04,17,07,21,-0.30
2022,04,17,07,22,-0.30
2022,04,17,07,23,-0.20
2022,04,17,07,24,-0.20
2022,04,17,07,25,-0.20
2022,04,17,07,26,-0.20
2022,04,17,07,27,-0.20
2022,04,17,07,28,-0.20
2022,04,17,07,29,-0.20
2022,04,17,07,30,-0.10
2022,04,17,07,31,-0.10
2022,04,17,07,32,-0.10
2022,04,17,07,33,-0.10
2022,04,17,07,34,-0.10
2022,04,17,07,35,-0.10
2022,04,17,07,36,-0.10
2022,04,17,07,37,-0.10
2022,04,17,07,38,-0.10
2022,04,17,07,39,-0.10
2022,04,17,07,40,-0.10
2022,04,17,07,41,0.00
2022,04,17,07,42,0.10
2022,04,17,07,43,0.10
2022,04,17,07,44,0.10
2022,04,17,07,45,0.10
2022,04,17,07,46,0.10
2022,04,17,07,47,0.10
2022,04,17,07,48,0.10
2022,04,17,07,49,0.10
2022,04,17,07,50,0.10
2022,04,17,07,51,0.10
2022,04,17,07,52,0.20
2022,04,17,07,53,0.20
2022,04,17,07,54,0.20
2022,04,17,07,55,0.30
2022,04,17,07,56,0.30
2022,04,17,07,57,0.30
2022,04,17,07,58,0.40
2022,04,17,07,59,0.40
2022,04,17,08,00,0.40
2022,04,17,08,01,0.50
2022,04,17,08,02,0.50
2022,04,17,08,03,0.60
2022,04,17,08,04,0.70
2022,04,17,08,05,0.70
2022,04,17,08,06,0.80
2022,04,17,08,07,0.90
2022,04,17,08,08,1.00
2022,04,17,08,09,1.20
2022,04,17,08,10,1.40
2022,04,17,08,11,1.60
2022,04,17,08,12,1.70
2022,04,17,08,13,1.90
2022,04,17,08,14,2.00
2022,04,17,08,15,2.10
2022,04,17,08,16,2.20
2022,04,17,08,17,2.30
2022,04,17,08,18,2.40
2022,04,17,08,19,2.50
2022,04,17,08,20,2.50
2022,04,17,08,21,2.60
2022,04,17,08,22,2.60
2022,04,17,08,23,2.70
2022,04,17,08,24,2.70
2022,04,17,08,25,2.80
2022,04,17,08,26,2.80
2022,04,17,08,27,2.90
2022,04,17,08,28,2.90
2022,04,17,08,29,2.90
2022,04,17,08,30,2.90
2022,04,17,08,31,3.10
2022,04,17,08,32,3.10
2022,04,17,08,33,3.10
2022,04,17,08,34,3.20
2022,04,17,08,35,3.20
2022,04,17,08,36,3.30
2022,04,17,08,37,3.30
2022,04,17,08,38,3.30
2022,04,17,08,39,3.30
2022,04,17,08,40,3.30
2022,04,17,08,41,3.30
2022,04,17,08,42,3.30
2022,04,17,08,43,3.30
2022,04,17,08,44,3.30
2022,04,17,08,45,3.40
2022,04,17,08,46,3.40
2022,04,17,08,47,3.40
2022,04,17,08,48,3.50
2022,04,17,08,49,3.50
2022,04,17,08,50,3.60
2022,04,17,08,51,3.70
2022,04,17,08,52,3.80
2022,04,17,08,53,3.80
2022,04,17,08,54,3.80
2022,04,17,08,55,3.90
2022,04,17,08,56,3.90
2022,04,17,08,57,3.90
2022,04,17,08,58,4.00
2022,04,17,08,59,4.00
2022,04,17,09,00,4.10
2022,04,17,09,01,4.10
2022,04,17,09,02,4.20
2022,04,17,09,03,4.20
2022,04,17,09,04,4.20
2022,04,17,09,05,4.20
2022,04,17,09,06,4.30
2022,04,17,09,07,4.30
2022,04,17,09,08,4.40
2022,04,17,09,09,4.50
2022,04,17,09,10,4.50
2022,04,17,09,11,4.60
2022,04,17,09,12,4.60
2022,04,17,09,13,4.60
2022,04,17,09,14,4.70
2022,04,17,09,15,4.70
2022,04,17,09,16,4.80
2022,04,17,09,17,4.80
2022,04,17,09,18,4.90
2022,04,17,09,19,4.90
2022,04,17,09,20,5.00
2022,04,17,09,21,5.10
2022,04,17,09,22,5.10
2022,04,17,09,23,5.10
2022,04,17,09,24,5.10
2022,04,17,09,25,5.10
2022,04,17,09,26,5.10
2022,04,17,09,27,5.10
2022,04,17,09,28,5.10
2022,04,17,09,29,5.10
2022,04,17,09,30,5.10
2022,04,17,09,31,5.10
2022,04,17,09,32,5.10
2022,04,17,09,33,5.10
2022,04,17,09,34,5.10
2022,04,17,09,35,5.10
2022,04,17,09,36,5.10
2022,04,17,09,37,5.20
2022,04,17,09,38,5.20
2022,04,17,09,39,5.20
2022,04,17,09,40,5.20
2022,04,17,09,41,5.30
2022,04,17,09,42,5.30
2022,04,17,09,43,5.30
2022,04,17,09,44,5.30
2022,04,17,09,45,5.30
2022,04,17,09,46,5.40
2022,04,17,09,47,5.40
2022,04,17,09,48,5.40
2022,04,17,09,49,5.40
2022,04,17,09,50,5.50
2022,04,17,09,51,5.50
2022,04,17,09,52,5.50
2022,04,17,09,53,5.60
2022,04,17,09,54,5.70
2022,04,17,09,55,5.70
2022,04,17,09,56,5.70
2022,04,17,09,57,5.70
2022,04,17,09,58,5.70
2022,04,17,09,59,5.80
2022,04,17,10,00,5.80
2022,04,17,10,01,5.90
2022,04,17,10,02,6.00
2022,04,17,10,03,6.00
2022,04,17,10,04,6.00
2022,04,17,10,05,6.00
2022,04,17,10,06,6.10
2022,04,17,10,07,6.10
2022,04,17,10,08,6.10
2022,04,17,10,09,6.20
2022,04,17,10,10,6.20
2022,04,17,10,11,6.20
2022,04,17,10,12,6.20
2022,04,17,10,13,6.20
2022,04,17,10,14,6.20
2022,04,17,10,15,6.30
2022,04,17,10,16,6.30
2022,04,17,10,17,6.40
2022,04,17,10,18,6.40
2022,04,17,10,19,6.40
2022,04,17,10,20,6.40
2022,04,17,10,21,6.40
2022,04,17,10,22,6.50
2022,04,17,10,23,6.60
2022,04,17,10,24,6.60
2022,04,17,10,25,6.60
2022,04,17,10,26,6.60
2022,04,17,10,27,6.60
2022,04,17,10,28,6.70
2022,04,17,10,29,6.80
2022,04,17,10,30,6.80
2022,04,17,10,31,7.00
2022,04,17,10,32,7.10
2022,04,17,10,33,7.20
2022,04,17,10,34,7.30
2022,04,17,10,35,7.30
2022,04,17,10,36,7.30
2022,04,17,10,37,7.30
2022,04,17,10,38,7.30
2022,04,17,10,39,7.30
2022,04,17,10,40,7.40
2022,04,17,10,41,7.40
2022,04,17,10,42,7.40
2022,04,17,10,43,7.30
2022,04,17,10,44,7.30
2022,04,17,10,45,7.30
2022,04,17,10,46,7.20
2022,04,17,10,47,7.20
2022,04,17,10,48,7.10
2022,04,17,10,49,7.10
2022,04,17,10,50,7.00
2022,04,17,10,51,7.00
2022,04,17,10,52,6.90
2022,04,17,10,53,6.90
2022,04,17,10,54,6.90
2022,04,17,10,55,6.90
2022,04,17,10,56,6.90
2022,04,17,10,57,7.00
2022,04,17,10,58,7.10
2022,04,17,10,59,7.10
2022,04,17,11,00,7.10
2022,04,17,11,01,7.20
2022,04,17,11,02,7.30
2022,04,17,11,03,7.40
2022,04,17,11,04,7.50
2022,04,17,11,05,7.50
2022,04,17,11,06,7.60
2022,04,17,11,07,7.50
2022,04,17,11,08,7.40
2022,04,17,11,09,7.30
2022,04,17,11,10,7.20
2022,04,17,11,11,7.10
2022,04,17,11,12,7.00
2022,04,17,11,13,6.90
2022,04,17,11,14,6.90
2022,04,17,11,15,6.80
2022,04,17,11,16,6.90
2022,04,17,11,17,6.90
2022,04,17,11,18,7.10
2022,04,17,11,19,7.20
2022,04,17,11,20,7.30
2022,04,17,11,21,7.50
2022,04,17,11,22,7.50
2022,04,17,11,23,7.50
2022,04,17,11,24,7.50
2022,04,17,11,25,7.50
2022,04,17,11,26,7.40
2022,04,17,11,27,7.40
2022,04,17,11,28,7.30
2022,04,17,11,29,7.30
2022,04,17,11,30,7.30
2022,04,17,11,31,7.20
2022,04,17,11,32,7.10
2022,04,17,11,33,7.10
2022,04,17,11,34,7.10
2022,04,17,11,35,7.10
2022,04,17,11,36,7.10
2022,04,17,11,37,7.10
2022,04,17,11,38,7.10
2022,04,17,11,39,7.00
2022,04,17,11,40,7.10
2022,04,17,11,41,7.00
2022,04,17,11,42,7.00
2022,04,17,11,43,7.00
2022,04,17,11,44,7.00
2022,04,17,11,45,7.00
2022,04,17,11,46,7.00
2022,04,17,11,47,7.00
2022,04,17,11,48,7.20
2022,04,17,11,49,7.30
2022,04,17,11,50,7.40
2022,04,17,11,51,7.50
2022,04,17,11,52,7.70
2022,04,17,11,53,7.80
2022,04,17,11,54,8.00
2022,04,17,11,55,8.00
2022,04,17,11,56,8.20
2022,04,17,11,57,8.30
2022,04,17,11,58,8.40
2022,04,17,11,59,8.50
2022,04,17,12,00,8.60
2022,04,17,12,01,8.60
2022,04,17,12,02,8.70
2022,04,17,12,03,8.70
2022,04,17,12,04,8.80
2022,04,17,12,05,8.90
2022,04,17,12,06,8.90
2022,04,17,12,07,9.00
2022,04,17,12,08,9.10
2022,04,17,12,09,9.20
2022,04,17,12,10,9.30
2022,04,17,12,11,9.30
2022,04,17,12,12,9.30
2022,04,17,12,13,9.30
2022,04,17,12,14,9.20
2022,04,17,12,15,9.20
2022,04,17,12,16,9.10
2022,04,17,12,17,9.00
2022,04,17,12,18,9.00
2022,04,17,12,19,9.00
2022,04,17,12,20,8.90
2022,04,17,12,21,9.00
2022,04,17,12,22,8.90
2022,04,17,12,23,8.90
2022,04,17,12,24,8.90
2022,04,17,12,25,8.90
2022,04,17,12,26,9.00
2022,04,17,12,27,9.10
2022,04,17,12,28,9.20
2022,04,17,12,29,9.20
2022,04,17,12,30,9.20
2022,04,17,12,31,9.20
2022,04,17,12,32,9.10
2022,04,17,12,33,9.10
2022,04,17,12,34,9.20
2022,04,17,12,35,9.20
2022,04,17,12,36,9.30
2022,04,17,12,37,9.40
2022,04,17,12,38,9.40
2022,04,17,12,39,9.40
2022,04,17,12,40,9.40
2022,04,17,12,41,9.50
2022,04,17,12,42,9.50
2022,04,17,12,43,9.50
2022,04,17,12,44,9.40
2022,04,17,12,45,9.40
2022,04,17,12,46,9.30
2022,04,17,12,47,9.20
2022,04,17,12,48,9.20
2022,04,17,12,49,9.20
2022,04,17,12,50,9.20
2022,04,17,12,51,9.20
2022,04,17,12,52,9.30
2022,04,17,12,53,9.30
2022,04,17,12,54,9.30
2022,04,17,12,55,9.40
2022,04,17,12,56,9.40
2022,04,17,12,57,9.30
2022,04,17,12,58,9.40
2022,04,17,12,59,9.40
2022,04,17,13,00,9.40
2022,04,17,13,01,9.50
2022,04,17,13,02,9.50
2022,04,17,13,03,9.50
2022,04,17,13,04,9.60
2022,04,17,13,05,9.70
2022,04,17,13,06,9.70
2022,04,17,13,07,9.70
2022,04,17,13,08,9.70
2022,04,17,13,09,9.70
2022,04,17,13,10,9.60
2022,04,17,13,11,9.60
2022,04,17,13,12,9.60
2022,04,17,13,13,9.50
2022,04,17,13,14,9.50
2022,04,17,13,15,9.60
2022,04,17,13,16,9.60
2022,04,17,13,17,9.50
2022,04,17,13,18,9.50
2022,04,17,13,19,9.50
2022,04,17,13,20,9.60
2022,04,17,13,21,9.60
2022,04,17,13,22,9.60
2022,04,17,13,23,9.70
2022,04,17,13,24,9.70
2022,04,17,13,25,9.70
2022,04,17,13,26,9.80
2022,04,17,13,27,9.80
2022,04,17,13,28,9.80
2022,04,17,13,29,9.90
2022,04,17,13,30,9.80
2022,04,17,13,31,9.90
2022,04,17,13,32,9.90
2022,04,17,13,33,9.90
2022,04,17,13,34,9.80
2022,04,17,13,35,9.80
2022,04,17,13,36,9.70
2022,04,17,13,37,9.70
2022,04,17,13,38,9.70
2022,04,17,13,39,9.70
2022,04,17,13,40,9.70
2022,04,17,13,41,9.70
2022,04,17,13,42,9.70
2022,04,17,13,43,9.70
2022,04,17,13,44,9.80
2022,04,17,13,45,9.80
2022,04,17,13,46,9.80
2022,04,17,13,47,9.90
2022,04,17,13,48,9.90
2022,04,17,13,49,10.00
2022,04,17,13,50,10.10
2022,04,17,13,51,10.20
2022,04,17,13,52,10.20
2022,04,17,13,53,10.30
2022,04,17,13,54,10.30
2022,04,17,13,55,10.30
2022,04,17,13,56,10.40
2022,04,17,13,57,10.40
2022,04,17,13,58,10.40
2022,04,17,13,59,10.40
2022,04,17,14,00,10.40
2022,04,17,14,01,10.50
2022,04,17,14,02,10.60
2022,04,17,14,03,10.50
2022,04,17,14,04,10.40
2022,04,17,14,05,10.40
2022,04,17,14,06,10.40
2022,04,17,14,07,10.40
2022,04,17,14,08,10.40
2022,04,17,14,09,10.40
2022,04,17,14,10,10.40
2022,04,17,14,11,10.40
2022,04,17,14,12,10.40
2022,04,17,14,13,10.50
2022,04,17,14,14,10.60
2022,04,17,14,15,10.60
2022,04,17,14,16,10.70
2022,04,17,14,17,10.70
2022,04,17,14,18,10.70
2022,04,17,14,19,10.60
2022,04,17,14,20,10.60
2022,04,17,14,21,10.60
2022,04,17,14,22,10.60
2022,04,17,14,23,10.70
2022,04,17,14,24,10.70
2022,04,17,14,25,10.50
2022,04,17,14,26,10.40
2022,04,17,14,27,10.40
2022,04,17,14,28,10.40
2022,04,17,14,29,10.30
2022,04,17,14,30,10.30
2022,04,17,14,31,10.30
2022,04,17,14,32,10.30
2022,04,17,14,33,10.40
2022,04,17,14,34,10.50
2022,04,17,14,35,10.60
2022,04,17,14,36,10.60
2022,04,17,14,37,10.60
2022,04,17,14,38,10.70
2022,04,17,14,39,10.70
2022,04,17,14,40,10.70
2022,04,17,14,41,10.60
2022,04,17,14,42,10.60
2022,04,17,14,43,10.60
2022,04,17,14,44,10.70
2022,04,17,14,45,10.60
2022,04,17,14,46,10.60
2022,04,17,14,47,10.60
2022,04,17,14,48,10.60
2022,04,17,14,49,10.40
2022,04,17,14,50,10.40
2022,04,17,14,51,10.50
2022,04,17,14,52,10.50
2022,04,17,14,53,10.60
2022,04,17,14,54,10.60
2022,04,17,14,55,10.60
2022,04,17,14,56,10.70
2022,04,17,14,57,10.80
2022,04,17,14,58,10.70
2022,04,17,14,59,10.60
2022,04,17,15,00,10.60
2022,04,17,15,01,10.60
2022,04,17,15,02,10.60
2022,04,17,15,03,10.60
2022,04,17,15,04,10.60
2022,04,17,15,05,10.60
2022,04,17,15,06,10.70
2022,04,17,15,07,10.70
2022,04,17,15,08,10.80
2022,04,17,15,09,10.80
2022,04,17,15,10,10.80
2022,04,17,15,11,10.80
2022,04,17,15,12,10.80
2022,04,17,15,13,10.80
2022,04,17,15,14,10.70
2022,04,17,15,15,10.70
2022,04,17,15,16,10.60
2022,04,17,15,17,10.60
2022,04,17,15,18,10.60
2022,04,17,15,19,10.60
2022,04,17,15,20,10.60
2022,04,17,15,21,10.70
2022,04,17,15,22,10.70
2022,04,17,15,23,10.70
2022,04,17,15,24,10.60
2022,04,17,15,25,10.60
2022,04,17,15,26,10.60
2022,04,17,15,27,10.60
2022,04,17,15,28,10.60
2022,04,17,15,29,10.60
2022,04,17,15,30,10.60
2022,04,17,15,31,10.50
2022,04,17,15,32,10.40
2022,04,17,15,33,10.40
2022,04,17,15,34,10.40
2022,04,17,15,35,10.30
2022,04,17,15,36,10.30
2022,04,17,15,37,10.20
2022,04,17,15,38,10.20
2022,04,17,15,39,10.20
2022,04,17,15,40,10.20
2022,04,17,15,41,10.20
2022,04,17,15,42,10.20
2022,04,17,15,43,10.20
2022,04,17,15,44,10.20
2022,04,17,15,45,10.20
2022,04,17,15,46,10.10
2022,04,17,15,47,10.10
2022,04,17,15,48,10.10
2022,04,17,15,49,10.20
2022,04,17,15,50,10.20
2022,04,17,15,51,10.20
2022,04,17,15,52,10.20
2022,04,17,15,53,10.30
2022,04,17,15,54,10.30
2022,04,17,15,55,10.30
2022,04,17,15,56,10.20
2022,04,17,15,57,10.20
2022,04,17,15,58,10.20
2022,04,17,15,59,10.20
2022,04,17,16,00,10.20
2022,04,17,16,01,10.20
2022,04,17,16,02,10.20
2022,04,17,16,03,10.20
2022,04,17,16,04,10.30
2022,04,17,16,05,10.20
2022,04,17,16,06,10.20
2022,04,17,16,07,10.20
2022,04,17,16,08,10.10
2022,04,17,16,09,10.10
2022,04,17,16,10,10.10
2022,04,17,16,11,10.00
2022,04,17,16,12,9.90
2022,04,17,16,13,9.90
2022,04,17,16,14,9.90
2022,04,17,16,15,9.90
2022,04,17,16,16,9.90
2022,04,17,16,17,9.90
2022,04,17,16,18,9.90
2022,04,17,16,19,9.90
2022,04,17,16,20,9.90
2022,04,17,16,21,9.90
2022,04,17,16,22,9.90
2022,04,17,16,23,10.00
2022,04,17,16,24,10.10
2022,04,17,16,25,10.10
2022,04,17,16,26,10.10
2022,04,17,16,27,10.10
2022,04,17,16,28,10.10
2022,04,17,16,29,10.10
2022,04,17,16,30,10.10
2022,04,17,16,31,10.10
2022,04,17,16,32,10.10
2022,04,17,16,33,10.10
2022,04,17,16,34,10.10
2022,04,17,16,35,10.10
2022,04,17,16,36,10.10
2022,04,17,16,37,10.10
2022,04,17,16,38,10.10
2022,04,17,16,39,10.10
2022,04,17,16,40,10.10
2022,04,17,16,41,10.10
2022,04,17,16,42,10.00
2022,04,17,16,43,9.90
2022,04,17,16,44,9.90
2022,04,17,16,45,9.90
2022,04,17,16,46,9.90
2022,04,17,16,47,9.90
2022,04,17,16,48,9.90
2022,04,17,16,49,9.90
2022,04,17,16,50,9.90
2022,04,17,16,51,9.90
2022,04,17,16,52,9.90
2022,04,17,16,53,9.90
2022,04,17,16,54,9.90
2022,04,17,16,55,9.90
2022,04,17,16,56,9.90
2022,04,17,16,57,9.90
2022,04,17,16,58,9.90
2022,04,17,16,59,9.90
2022,04,17,17,00,9.90
2022,04,17,17,01,9.90
2022,04,17,17,02,9.90
2022,04,17,17,03,9.90
2022,04,17,17,04,9.90
2022,04,17,17,05,9.90
2022,04,17,17,06,9.90
2022,04,17,17,07,9.90
2022,04,17,17,08,9.90
2022,04,17,17,09,9.90
2022,04,17,17,10,9.90
2022,04,17,17,11,9.90
2022,04,17,17,12,9.90
2022,04,17,17,13,9.90
2022,04,17,17,14,9.90
2022,04,17,17,15,9.80
2022,04,17,17,16,9.80
2022,04,17,17,17,9.80
2022,04,17,17,18,9.70
2022,04,17,17,19,9.70
2022,04,17,17,20,9.70
2022,04,17,17,21,9.70
2022,04,17,17,22,9.70
2022,04,17,17,23,9.70
2022,04,17,17,24,9.70
2022,04,17,17,25,9.70
2022,04,17,17,26,9.70
2022,04,17,17,27,9.70
2022,04,17,17,28,9.70
2022,04,17,17,29,9.70
2022,04,17,17,30,9.70
2022,04,17,17,31,9.70
2022,04,17,17,32,9.80
2022,04,17,17,33,9.80
2022,04,17,17,34,9.80
2022,04,17,17,35,9.80
2022,04,17,17,36,9.80
2022,04,17,17,37,9.70
2022,04,17,17,38,9.70
2022,04,17,17,39,9.70
2022,04,17,17,40,9.70
2022,04,17,17,41,9.70
2022,04,17,17,42,9.70
2022,04,17,17,43,9.70
2022,04,17,17,44,9.70
2022,04,17,17,45,9.70
2022,04,17,17,46,9.70
2022,04,17,17,47,9.70
2022,04,17,17,48,9.70
2022,04,17,17,49,9.70
2022,04,17,17,50,9.70
2022,04,17,17,51,9.70
2022,04,17,17,52,9.70